ONEWEB-0212 (48791 NORAD) Tracking and Keplerian Element Data

This shows tracking and keplerian element data for the satellite.

Feedback or suggestion? Click here.




ElementValue
Catalog48791
NameONEWEB-0212
Epoch Orbit193
Epoch Day170.58334491
Epoch Year2021
RAAN268.8487
Inclination87.4099
Eccentricity0.0011519
Argument of Perigee164.3903
Mean Anonmoly135.9758
Mean Motion15.3908226
Decay Rate-0.00949602
L11 48791U 21045AA 21170.58334491 -.00949602 00000-0 -26766-1 0 9999
L22 48791 87.4099 268.8487 0011519 164.3903 135.9758 15.39082260 1931

Live tracking and technical data element details for ONEWEB-0212 (NORAD 48791). ONEWEB-0212 can be tracked NOW for your location showing map with azimuth and elevation plus other details from your city location.

Track the satellite on the map from your city or location and see movement details for azimuth, elevation, latitude, longitude, range, height, and movement on the map or in text.







IsCatalogInMostPopularTable: catalog: 48791, numindb: 8
Update: records affected: 1



GetName: 48791 ONEWEB-0212

Hit Count: updated at: Mon, 21 Jun 2021 03:49:23 GMT